Wind_Speed
21 22 24 25 27 27 28 30 32 35 37 39 42 44 46 49 52 53 56 60 62 67 71 71 74 78 80 83 88 90 93 97 99 99 97 96 97 98 99 101 101 102 102 102 103 100 93 86 80 76 74 73 71 69 66 64 64 64 65 65 65 65 65 66 68 70 72 74 76 77 79 81 83 85 87 89 91 93 95 96 99 102 104 106 108 110
19 22 24 26 27 28 30 32 34 37 40 42 45 47 47 49 54 56 57 61 63 66 71 74 76 80 84 85 87 90 93 98 99 99 97 97 97 98 100 103 104 104 103 103 102 99 93 85 77 72 69 68 68 68 67 64 62 61 62 62 63 64 63 64 65 67 69 71 72 74 75 78 80 82 84 86 88 90 91 93 95 97 99 102 104 106
19 22 24 26 27 29 31 33 36 39 41 44 46 50 52 52 53 56 58 61 65 67 72 75 75 79 84 84 86 90 93 97 101 100 99 98 98 100 103 105 106 106 105 104 104 102 97 89 81 74 69 66 63 63 64 65 63 61 60 61 62 62 62 63 64 65 67 68 69 70 72 75 78 80 81 82 85 87 89 90 91 93 95 98 100 103
19 21 23 25 27 30 33 35 38 41 43 46 49 52 55 54 52 54 58 62 66 69 72 76 76 77 81 85 87 90 93 98 103 102 99 98 99 102 105 106 108 108 108 107 107 108 104 96 88 81 74 70 65 61 60 61 61 61 60 60 60 60 59 60 62 62 64 66 66 67 69 73 76 78 79 80 82 84 86 87 89 90 92 94 96 99
18 20 22 25 28 30 33 37 40 43 47 51 54 54 55 57 57 57 59 63 67 70 71 75 78 77 80 84 87 89 94 98 102 102 100 100 101 103 106 108 110 111 111 111 111 112 110 104 96 89 82 76 71 65 61 59 58 58 57 57 58 58 57 57 58 60 60 61 63 65 67 69 72 74 76 78 80 82 83 84 86 87 89 91 93 95
17 19 22 25 28 30 33 37 42 46 50 52 54 56 57 59 61 60 62 65 69 71 72 75 78 77 78 84 88 90 94 98 101 102 102 102 103 104 107 110 112 113 114 114 114 115 113 108 100 93 87 81 75 70 66 62 59 57 55 53 54 55 56 55 55 58 60 58 59 62 64 66 68 70 73 75 78 80 80 81 82 84 86 88 91 93
18 20 22 24 27 31 35 39 45 48 50 52 54 57 60 61 63 64 65 68 70 72 73 74 76 78 79 85 90 92 94 97 100 103 105 106 106 106 108 110 113 115 116 117 117 117 114 109 102 95 88 83 77 72 69 66 62 58 55 53 51 51 53 53 53 56 59 58 58 60 63 64 65 67 69 71 74 75 76 77 78 80 83 86 88 91
18 20 22 24 28 34 38 42 46 49 50 53 56 58 61 63 66 67 67 67 69 71 72 73 75 81 85 86 89 91 93 97 102 105 107 108 108 107 108 111 115 117 119 120 119 118 115 109 103 97 90 85 79 75 71 67 63 60 56 54 52 50 50 51 51 52 54 56 58 60 61 62 63 64 64 66 68 69 70 72 74 77 80 82 85 88
19 21 23 26 30 35 40 43 46 48 50 53 56 59 63 66 68 69 68 67 68 71 73 76 78 83 87 89 91 93 95 100 105 107 108 109 109 109 110 111 115 118 120 120 120 119 117 112 105 99 93 88 83 79 75 70 66 62 59 56 54 52 49 48 49 50 50 51 54 57 59 61 61 61 60 61 62 64 67 69 71 75 77 79 82 85
21 24 26 30 33 37 41 44 45 48 51 53 56 59 61 64 66 69 70 68 68 71 75 79 81 83 86 90 94 97 100 103 107 109 110 111 111 111 112 113 115 118 119 120 120 120 118 115 108 101 95 89 85 81 77 73 69 65 61 59 56 55 53 50 48 48 48 47 48 52 55 58 59 59 59 58 59 61 63 65 67 70 72 74 77 80
25 28 31 34 36 39 42 45 47 50 52 54 55 55 57 61 63 67 70 70 68 71 75 79 83 86 87 90 95 100 103 105 106 108 110 111 112 112 113 114 115 117 119 120 121 121 119 115 110 103 96 90 86 81 77 73 70 66 62 59 57 56 56 54 52 50 48 46 46 47 49 53 55 57 58 58 58 58 59 60 61 64 66 70 73 76
29 31 34 37 38 40 43 46 48 51 52 53 54 55 58 60 62 65 69 71 71 72 77 81 84 88 90 92 96 100 103 104 105 107 109 111 113 113 113 113 114 116 119 121 122 123 121 117 111 105 98 92 87 83 78 74 71 67 64 61 59 57 56 56 55 53 50 47 45 45 45 47 50 53 55 56 57 57 57 56 57 58 61 64 68 71
30 33 36 38 40 42 43 44 47 49 51 53 55 56 58 59 62 64 66 71 74 74 78 82 83 86 90 93 96 100 102 104 105 107 110 112 113 114 114 115 116 117 119 121 122 123 122 120 114 107 101 95 89 85 80 76 73 69 66 63 60 58 57 56 55 54 51 48 46 44 44 44 46 48 50 52 54 55 56 55 54 55 56 58 61 64
30 33 35 37 39 41 41 42 44 48 51 54 57 58 58 59 63 65 66 70 75 76 78 81 83 84 89 93 96 100 102 104 106 109 110 112 114 116 116 117 119 120 120 120 121 122 122 121 117 110 103 97 91 86 81 77 74 71 67 64 61 58 57 55 55 53 51 49 46 44 43 43 43 45 46 48 49 51 53 54 54 54 54 55 56 58
31 34 34 36 39 41 42 42 45 49 53 57 61 63 64 66 68 70 72 73 76 77 76 79 84 87 91 94 97 100 103 105 107 109 111 114 117 118 118 118 119 120 120 120 120 122 123 122 119 113 107 100 94 89 83 78 74 72 69 66 63 60 57 55 54 53 51 48 45 43 42 41 41 42 43 44 45 46 48 50 52 53 53 53 53 54
33 36 38 39 41 44 46 47 48 51 54 58 63 66 69 70 71 73 75 74 76 78 78 80 86 90 91 93 96 99 103 105 107 110 113 117 119 120 119 119 119 120 121 121 120 121 123 123 122 117 110 103 97 91 86 80 75 71 68 66 64 61 58 56 54 52 50 48 45 42 41 40 39 39 39 40 41 42 44 45 48 50 51 52 52 52
33 36 39 41 43 46 50 52 53 54 57 61 65 68 71 73 74 74 73 73 76 81 83 82 85 88 89 91 94 99 104 107 110 113 115 117 119 120 121 120 120 121 122 123 123 122 124 125 125 121 115 107 100 94 89 83 78 73 70 66 64 62 60 57 54 52 50 48 45 42 40 38 38 37 37 37 37 38 39 41 43 46 47 49 50 50
34 36 39 43 45 48 51 54 57 59 61 64 67 70 72 74 76 76 73 73 75 79 83 85 85 88 91 93 95 100 104 107 111 114 115 116 118 120 121 121 121 122 124 126 126 124 124 126 127 124 119 111 104 98 92 87 82 77 72 68 64 62 61 59 56 52 50 48 46 42 39 37 36 36 36 36 36 35 36 37 39 41 43 45 47 48
36 39 41 44 46 49 51 54 58 61 63 66 70 73 74 75 77 80 79 77 77 78 82 85 88 90 93 95 97 99 101 105 109 112 114 116 118 119 121 122 122 123 124 127 128 127 126 126 128 126 122 115 108 102 96 92 87 81 76 71 66 62 61 60 57 54 50 47 46 44 41 37 35 34 34 34 34 34 34 35 35 37 39 41 43 45
37 40 42 45 48 51 53 56 58 61 63 66 69 72 74 76 77 80 83 83 82 83 84 86 89 92 95 96 98 99 101 104 107 112 115 116 119 121 122 122 123 123 125 127 130 130 129 127 128 128 125 119 112 105 99 94 90 85 80 75 70 65 61 59 58 55 51 47 45 43 42 39 36 34 33 32 32 32 32 32 33 34 35 37 39 41
38 41 44 46 49 52 55 58 61 64 65 67 70 73 75 76 77 79 82 85 85 86 88 89 90 92 94 96 97 99 102 105 108 112 116 118 120 122 123 124 124 125 126 128 130 133 133 130 128 129 127 122 115 108 102 97 93 88 84 79 74 69 64 60 58 56 53 49 45 42 41 39 37 35 33 31 30 30 30 30 31 32 32 33 35 37
38 41 44 47 50 53 56 60 63 66 68 70 72 74 76 77 78 79 82 86 87 88 91 93 92 91 92 95 97 100 103 107 110 113 116 120 122 123 123 124 125 126 127 130 132 135 136 134 130 129 128 125 118 112 106 100 95 91 87 82 78 73 67 63 59 57 55 52 47 43 40 38 37 36 33 31 30 29 28 29 29 30 30 31 31 33
39 41 44 47 50 53 56 60 63 66 68 71 73 75 76 77 79 81 83 86 89 89 89 93 95 94 93 95 98 100 103 106 109 112 116 120 122 122 123 123 124 126 128 131 134 137 138 138 134 130 128 127 122 115 110 104 99 94 90 85 80 76 71 66 62 58 55 53 50 46 42 38 37 36 34 32 30 28 27 27 27 28 28 29 29 30
40 41 42 45 49 52 55 58 62 65 67 69 72 74 76 77 79 81 84 86 89 90 88 90 95 96 95 95 97 99 101 104 107 110 114 118 120 121 122 123 124 126 128 131 134 136 138 139 138 134 130 129 126 120 114 108 103 98 93 88 83 78 74 69 65 61 56 53 51 48 45 40 37 36 35 33 31 29 28 26 26 26 26 27 27 28
42 42 42 44 47 49 52 55 59 64 67 69 71 74 76 77 79 81 83 85 87 90 89 89 92 96 96 95 96 97 99 102 106 109 112 116 118 119 121 122 124 126 128 130 133 136 138 140 140 138 134 131 129 125 119 113 107 101 95 90 85 81 76 71 67 63 58 54 50 48 46 43 39 36 35 34 32 31 29 27 26 25 25 25 25 26
44 46 46 47 49 51 54 58 61 66 69 71 72 75 77 78 79 81 84 85 86 89 92 92 91 93 94 94 94 96 98 100 104 107 110 113 116 118 120 122 124 126 128 130 132 135 137 139 140 140 138 135 132 129 124 117 110 104 98 93 88 83 78 74 69 65 61 56 52 49 46 44 41 38 36 34 33 32 30 29 26 25 24 24 24 25
46 49 50 51 53 56 59 62 65 68 71 73 73 75 77 77 79 81 84 86 87 88 91 93 91 91 92 92 93 95 97 99 102 105 108 112 115 118 120 122 124 126 129 130 131 133 135 137 139 141 141 139 135 132 128 121 114 107 101 95 90 85 81 76 71 67 63 59 55 50 47 45 42 39 37 35 33 32 31 30 28 26 24 23 23 23
47 50 53 53 55 58 60 63 66 68 71 74 74 75 77 78 79 81 83 86 88 87 88 92 93 93 92 92 92 94 96 99 102 104 108 112 115 117 120 122 124 126 128 129 130 131 133 135 138 140 141 141 138 134 130 125 118 111 104 98 92 87 83 78 73 69 65 62 57 52 49 46 43 40 38 35 33 32 31 30 29 27 25 23 23 22
48 50 54 56 57 59 61 64 67 69 72 74 75 75 76 78 78 80 82 85 87 88 87 89 92 93 92 92 92 94 96 99 102 105 108 112 114 116 119 121 123 125 126 128 129 129 131 134 136 138 140 142 141 136 131 127 121 114 107 101 94 89 84 80 75 71 66 63 59 54 50 46 43 40 38 36 34 32 31 30 28 27 25 24 23 22
48 51 53 57 59 61 63 65 68 70 72 74 75 75 76 78 78 79 81 84 86 87 87 88 90 92 93 92 93 94 97 99 102 105 108 111 113 115 118 120 122 124 125 126 128 129 130 132 134 136 138 141 142 139 134 128 123 118 111 104 97 91 86 81 77 73 68 64 61 57 51 47 43 41 39 37 35 33 31 29 28 27 26 24 23 22
49 51 53 56 59 61 64 66 68 70 72 74 75 74 75 78 79 79 81 83 85 86 87 88 89 91 92 92 93 94 96 98 100 104 107 110 112 114 117 119 121 122 124 125 127 128 130 131 132 135 137 139 141 140 137 130 125 120 114 107 100 93 88 83 79 75 70 66 62 59 54 49 45 42 40 38 36 33 31 30 28 27 26 25 23 21
51 53 55 57 60 62 64 66 68 70 72 73 74 73 74 77 80 80 81 83 85 85 86 87 89 91 91 90 90 92 94 96 99 102 105 108 111 114 116 118 120 121 123 125 126 128 129 130 131 133 135 137 139 140 139 134 127 122 117 111 103 96 90 85 80 76 72 67 64 60 56 51 47 44 42 39 37 34 32 30 28 27 26 25 23 21
53 55 56 58 61 64 65 67 69 70 72 73 73 72 73 76 79 81 81 83 85 86 86 87 89 91 91 89 89 91 93 94 98 101 104 107 110 113 116 118 120 121 124 125 127 128 129 129 130 132 134 136 138 140 141 138 132 125 119 114 107 99 92 87 82 78 73 69 64 61 58 54 49 47 44 41 38 35 33 31 29 28 26 25 24 22
55 57 58 60 61 64 66 68 70 71 72 73 72 73 73 74 77 81 82 84 86 88 88 88 89 90 90 89 89 91 92 94 97 101 104 107 110 113 115 118 120 122 124 126 128 128 129 129 130 131 133 135 137 140 142 141 137 129 122 117 111 103 95 89 84 79 75 70 65 62 59 55 51 48 46 43 40 37 34 32 30 28 27 25 24 22
58 59 60 62 63 64 66 68 69 71 72 72 73 73 73 73 74 77 81 83 85 86 86 87 89 90 90 89 89 90 92 94 96 100 104 106 108 112 115 118 120 122 124 127 128 129 129 130 130 131 132 134 137 139 141 142 141 135 126 119 113 107 98 91 86 80 76 72 67 62 59 56 52 49 46 44 41 38 36 34 32 29 27 25 24 22
59 60 61 62 63 64 66 68 69 71 72 73 73 72 72 71 71 73 77 81 82 84 85 86 88 89 89 88 88 89 91 93 96 99 102 104 106 110 114 117 120 122 125 127 129 130 131 131 131 131 132 133 136 138 141 142 142 139 131 122 115 109 102 94 88 83 78 73 69 64 59 56 53 50 47 45 42 40 37 35 33 31 28 26 24 23
61 62 62 63 64 65 66 68 69 70 71 71 71 71 71 71 70 71 75 78 81 83 84 84 86 88 89 88 88 89 91 94 96 98 100 103 106 109 113 117 120 123 125 128 130 132 132 132 132 132 132 134 135 137 140 142 143 141 135 126 117 111 105 98 91 84 79 75 70 66 61 57 54 51 48 46 43 41 38 35 33 32 30 28 26 24
63 64 64 65 66 66 67 68 68 68 69 69 70 70 70 70 70 71 73 76 79 80 81 83 85 87 87 87 88 88 91 94 97 98 101 104 107 110 113 117 119 122 125 128 130 132 133 133 133 133 133 134 135 137 139 142 143 142 138 131 122 114 107 101 94 87 81 76 72 68 64 59 56 52 49 46 44 41 39 36 34 32 31 30 28 26
64 65 66 67 68 68 69 70 70 70 70 70 71 71 70 70 70 70 72 73 75 78 79 81 84 86 86 85 86 88 89 92 96 99 101 104 107 111 113 116 118 121 124 127 130 132 133 133 133 133 133 134 136 137 139 141 143 143 140 135 127 118 110 104 98 90 84 79 74 70 66 62 58 54 50 47 44 42 39 36 34 33 32 31 30 28
65 66 67 67 68 69 69 70 72 73 72 72 72 72 71 70 71 71 72 74 75 77 79 82 84 85 85 84 85 87 89 91 94 97 100 103 106 109 112 114 117 120 122 126 129 131 133 133 133 133 134 135 136 138 139 141 143 143 141 136 130 122 113 106 101 94 87 81 76 72 69 65 60 55 52 48 45 42 40 38 35 34 33 31 30 29
65 66 67 67 68 69 69 70 72 73 74 74 73 72 70 70 71 73 74 76 77 78 79 82 84 84 83 83 84 87 89 92 94 96 99 102 105 108 111 113 116 119 122 125 128 131 133 133 133 134 134 135 136 138 139 141 142 143 142 138 132 126 118 109 102 97 91 84 79 74 70 67 63 58 53 50 46 43 41 39 37 35 34 33 31 30
63 64 66 67 68 69 70 71 71 72 72 72 71 70 70 70 71 73 75 77 78 79 80 82 83 83 82 82 84 86 88 91 93 95 98 101 104 107 110 112 115 118 121 124 127 130 132 133 133 133 134 135 137 138 139 141 142 143 143 140 133 128 122 113 105 100 94 87 81 76 72 68 65 61 57 53 49 46 43 41 39 37 35 34 33 32
64 64 66 68 69 70 71 72 72 71 70 71 70 69 70 71 72 73 74 76 77 79 81 82 83 82 81 81 83 85 88 90 92 95 97 100 104 106 109 111 114 117 120 123 126 128 131 132 132 133 134 135 137 138 139 141 142 142 143 141 135 128 124 118 109 102 97 91 84 78 74 70 67 64 60 55 51 48 44 42 40 38 37 35 34 33
65 66 67 68 70 71 72 73 74 72 70 71 72 71 71 71 72 72 73 75 76 78 80 81 81 80 80 81 83 85 88 90 92 94 98 100 103 106 108 111 114 117 120 123 125 127 130 131 131 132 133 135 136 138 139 141 142 142 143 142 137 129 124 120 114 106 99 93 87 81 76 72 69 66 62 58 53 50 46 43 41 39 38 37 35 34
65 67 68 69 71 73 74 75 75 75 72 71 71 72 72 71 71 72 73 74 76 78 80 80 79 79 79 81 83 85 87 89 91 94 98 100 103 106 108 111 113 116 119 122 124 127 129 130 131 131 133 134 136 138 139 140 141 142 142 142 137 130 124 120 116 109 102 96 91 85 79 75 71 67 64 60 56 52 48 45 42 40 38 37 36 35
66 67 68 70 71 73 75 75 76 76 74 72 71 71 70 70 71 72 73 74 76 77 78 78 77 78 79 81 83 85 87 89 91 94 97 100 103 106 108 111 113 116 119 121 124 126 128 129 130 131 132 134 135 137 138 140 140 141 141 141 137 130 124 119 116 111 105 98 93 88 83 77 73 69 66 63 59 55 51 47 43 41 39 38 37 36
66 67 68 69 71 72 72 73 74 75 74 72 70 69 68 69 71 72 73 74 75 76 76 76 77 78 80 81 83 85 87 89 91 94 96 100 103 105 108 111 113 116 118 121 123 125 127 128 129 130 131 133 134 136 137 138 139 140 140 140 137 130 123 118 114 111 107 101 95 90 86 80 76 72 68 65 62 58 54 49 46 43 40 38 37 35
66 66 67 68 70 72 72 71 72 73 73 71 69 68 68 69 70 72 73 73 73 73 74 76 78 79 80 82 84 86 88 89 91 94 96 99 102 105 108 111 113 115 118 121 122 124 126 127 127 128 130 132 133 134 135 136 137 138 138 138 136 129 122 117 112 109 106 102 97 92 87 83 78 74 70 66 63 60 56 52 48 44 41 38 36 34
66 66 66 67 69 71 70 70 69 68 68 67 66 67 68 69 70 71 71 71 72 73 74 77 78 80 82 83 84 86 88 90 92 94 97 100 103 105 108 111 113 116 118 120 122 123 125 125 126 127 129 131 131 132 133 134 135 137 137 137 135 128 121 115 111 106 103 101 98 93 88 84 80 75 71 67 63 60 57 53 49 45 41 38 36 34
66 66 67 66 67 68 68 67 65 63 62 63 64 66 67 68 68 69 69 70 71 73 75 77 79 81 83 84 85 87 88 90 92 95 97 100 103 105 108 111 114 116 119 120 121 122 123 124 125 126 128 129 130 130 131 132 133 135 135 135 133 127 119 113 109 105 101 99 97 93 89 85 81 77 72 68 64 61 58 55 51 46 43 39 36 34
64 64 65 64 64 65 65 64 62 61 60 62 64 66 67 67 66 67 68 70 72 74 76 78 80 81 83 85 87 88 89 91 94 96 99 101 103 106 109 111 114 116 118 120 120 121 122 122 124 125 126 127 127 128 129 131 132 133 133 133 131 125 118 112 107 103 99 96 95 93 89 85 81 77 74 69 65 61 59 56 53 49 45 41 38 35
Wind_Direction
355 356 357 360 3 3 1 359 358 359 359 360 1 3 4 1 360 4 6 5 4 3 2 3 2 359 359 359 358 357 355 354 353 351 350 349 348 346 344 344 344 345 345 345 346 345 343 340 336 332 328 323 319 315 311 307 304 301 298 295 292 288 285 282 279 276 274 271 269 267 266 264 263 262 261 260 258 257 255 254 252 251 251 250 249 249
357 358 359 2 3 1 360 359 359 360 360 0 1 2 4 4 1 3 5 5 4 3 1 2 3 1 360 360 358 357 356 355 354 352 351 350 348 347 346 346 346 346 346 346 346 346 345 342 339 335 331 327 323 318 315 312 308 304 301 297 294 291 288 285 282 279 276 273 271 269 268 266 264 262 261 260 259 259 257 256 255 254 253 251 250 249
358 360 1 2 2 0 359 359 359 360 0 0 1 2 3 5 3 2 3 3 2 3 1 1 3 2 359 358 358 358 357 356 355 354 352 351 350 348 348 348 347 347 347 346 347 348 347 345 342 339 335 331 327 322 318 315 312 309 304 300 296 293 291 287 284 281 278 276 273 271 269 267 265 263 261 259 258 258 257 256 255 255 254 253 252 251
359 359 0 0 360 359 358 359 359 359 359 0 1 2 1 1 2 2 3 3 1 1 1 359 0 1 359 358 358 358 357 357 356 355 353 351 351 351 350 349 349 348 348 348 349 350 349 347 345 342 339 336 332 327 322 318 315 312 308 304 300 297 293 289 286 283 281 278 276 273 269 267 265 264 263 261 259 257 256 255 254 254 253 253 252 252
357 356 357 358 357 357 358 358 358 358 359 0 360 360 359 359 360 1 3 3 1 360 360 358 358 359 359 358 358 358 358 358 357 354 353 353 353 353 352 351 350 350 350 350 351 352 351 350 348 345 343 340 336 332 328 324 320 316 312 307 304 301 297 293 290 287 283 279 277 274 271 268 266 265 263 262 260 258 257 256 254 253 253 252 251 251
352 353 353 354 355 355 357 358 358 359 359 359 357 357 357 358 358 359 1 2 1 359 359 358 357 357 359 358 358 358 358 358 357 355 354 355 355 355 354 353 352 351 352 352 353 353 353 351 349 347 345 342 339 336 333 329 325 321 317 312 307 303 300 297 294 290 286 283 280 277 274 271 268 266 264 262 261 259 258 256 255 254 253 252 251 250
349 350 350 350 352 354 356 358 359 358 357 356 356 355 355 356 356 358 360 1 360 358 357 357 355 356 359 359 358 358 358 357 357 357 357 357 356 356 356 355 354 353 353 354 354 354 354 352 350 349 346 343 341 339 336 333 330 326 322 317 312 307 303 300 296 292 290 288 284 279 276 273 270 267 265 263 262 261 260 259 257 255 254 253 252 250
346 346 346 347 351 356 358 359 358 357 356 355 355 355 354 354 355 356 357 359 359 357 356 355 355 357 358 359 358 357 357 358 358 359 358 358 357 357 357 357 356 356 355 355 355 355 354 354 352 350 348 346 343 341 339 336 333 330 326 322 318 313 308 303 299 294 291 290 286 283 280 277 274 271 269 267 266 265 263 261 259 257 255 253 252 251
344 344 346 349 352 356 357 357 356 356 355 355 355 355 354 354 354 354 354 357 357 356 356 356 357 357 357 357 358 358 358 359 360 360 359 359 358 358 358 359 359 358 357 356 355 355 355 355 354 352 351 348 346 344 342 339 337 334 331 327 323 319 314 309 304 299 295 291 287 285 283 281 279 276 273 269 267 264 262 259 257 256 254 253 252 251
345 347 350 352 354 355 356 355 355 355 355 354 354 354 354 353 353 352 352 354 356 357 356 356 357 357 357 357 358 358 359 0 0 360 359 359 359 359 359 0 1 -0 359 357 356 356 356 356 355 354 353 351 348 347 344 342 339 337 334 332 328 324 321 317 312 307 301 296 290 286 283 282 282 280 277 273 269 265 262 259 257 256 255 254 254 252
351 352 353 354 354 355 355 354 354 354 354 353 353 353 353 352 352 352 351 351 355 357 357 357 356 356 358 359 359 359 360 0 0 360 359 360 360 1 1 1 2 1 360 359 358 357 357 357 356 355 354 353 351 349 347 344 341 339 337 335 332 329 325 322 318 314 309 303 296 290 285 283 281 281 279 277 274 270 266 263 260 257 256 254 254 254
353 353 354 353 353 353 354 354 353 353 352 351 351 352 352 352 352 352 351 350 353 357 357 357 357 356 357 359 360 360 360 360 0 0 360 0 1 1 2 2 2 2 2 0 359 359 358 358 358 357 356 355 353 351 349 347 344 342 340 338 336 333 329 326 322 318 314 309 303 297 291 286 282 280 280 279 278 275 272 269 266 262 258 255 253 253
348 350 352 352 351 351 351 352 351 351 350 350 350 350 350 351 351 352 352 352 353 356 358 357 357 357 357 358 360 360 360 360 0 1 1 1 1 2 2 2 2 3 3 2 1 360 359 359 359 358 357 356 355 354 352 349 347 345 343 341 339 336 332 329 325 321 318 313 308 302 297 291 286 283 281 279 278 277 276 273 269 266 262 258 255 253
346 347 348 348 348 348 347 348 349 349 349 349 349 349 349 350 351 351 353 354 353 355 358 356 356 358 358 358 360 360 360 360 0 1 1 1 2 3 3 3 3 4 4 3 2 1 0 0 360 359 359 358 357 355 354 352 349 347 345 343 341 339 336 331 327 324 320 317 312 307 302 296 291 287 284 281 278 277 276 274 272 269 265 261 258 255
346 345 344 345 345 345 345 345 347 348 349 350 350 349 350 350 351 351 353 355 354 354 356 357 356 358 359 358 359 360 360 360 0 0 1 2 2 3 4 4 4 4 4 4 2 2 1 1 1 1 0 360 358 357 356 355 352 350 348 345 343 341 339 335 330 327 323 320 315 311 306 301 296 291 287 284 281 278 276 275 273 272 269 266 262 259
344 345 344 345 346 346 346 346 347 348 349 350 351 351 350 350 351 352 353 354 354 353 355 358 358 357 358 358 358 360 360 360 -0 0 1 2 2 3 4 4 5 5 4 4 4 3 2 2 2 2 1 1 360 358 357 356 355 353 351 348 346 343 341 338 334 330 326 323 319 315 310 306 301 296 291 287 283 280 278 276 274 272 271 269 267 263
341 343 343 344 346 347 347 347 347 348 349 350 351 351 350 350 350 351 352 353 355 354 354 357 358 357 357 358 359 360 -0 360 0 1 1 2 2 2 3 4 5 5 5 5 5 4 3 3 3 3 2 1 1 360 358 357 357 356 354 352 349 346 343 341 338 334 330 327 324 320 315 311 306 301 296 291 287 283 279 277 275 273 272 270 269 267
340 341 343 344 345 346 347 348 348 349 349 350 350 351 351 351 349 349 351 353 355 355 354 355 356 356 356 357 359 360 360 360 -0 0 1 1 2 2 3 4 5 5 5 6 6 5 5 5 5 4 3 2 2 1 359 358 358 358 356 354 353 350 346 344 341 337 333 330 328 325 320 316 311 306 301 297 292 287 282 279 276 275 273 271 269 268
340 341 342 343 344 345 346 347 348 348 349 349 350 350 350 350 350 349 350 352 354 355 355 355 355 356 356 357 358 359 359 360 360 360 0 1 1 2 4 5 5 6 6 6 6 6 6 6 6 5 4 3 3 2 1 360 358 358 358 356 355 353 350 346 344 341 337 334 331 329 326 322 317 312 306 302 297 293 288 283 279 276 274 272 271 269
339 340 341 342 344 345 345 346 347 348 349 349 349 349 349 350 350 350 350 351 352 354 355 355 355 355 355 356 357 358 359 359 359 360 0 0 1 2 3 5 5 6 7 7 7 7 7 7 7 6 5 4 3 3 3 1 359 359 359 357 356 356 354 350 347 343 340 337 334 332 330 327 323 318 312 307 302 297 292 288 283 279 276 274 272 270
338 339 340 341 343 344 345 346 347 348 348 348 348 349 350 350 350 351 351 350 351 353 354 355 355 355 355 355 355 357 358 358 359 359 360 0 1 2 2 4 5 6 7 7 8 8 8 7 7 7 6 5 4 4 3 3 1 359 359 359 357 357 356 354 350 346 343 340 337 335 333 331 328 324 319 313 308 302 297 292 287 283 280 277 274 272
336 337 339 340 342 343 344 346 347 347 347 347 348 349 349 349 350 351 351 351 351 353 353 353 354 355 354 354 355 356 357 357 358 358 359 360 1 1 2 3 4 6 7 8 8 8 8 7 7 7 7 6 5 5 4 4 3 1 360 359 358 357 357 356 353 349 345 342 340 338 336 335 332 329 325 320 314 308 303 297 293 289 284 280 277 274
334 336 338 339 340 342 344 345 346 347 346 346 347 348 349 349 349 350 351 351 351 352 353 353 352 353 354 354 355 356 356 356 356 357 358 359 360 0 1 2 3 5 7 8 8 8 8 8 7 7 7 7 6 6 5 5 4 3 1 360 359 358 357 357 356 353 349 345 342 340 339 338 336 333 330 326 320 314 308 303 298 293 289 285 281 277
331 334 336 338 339 341 342 343 344 345 346 346 346 347 348 349 350 350 351 351 351 351 352 353 352 352 353 354 354 355 355 355 355 356 358 358 359 359 0 2 3 5 6 7 8 8 8 8 7 6 7 7 7 6 6 6 5 4 2 1 360 359 358 357 357 355 352 348 344 342 341 341 340 337 334 331 327 321 315 309 303 297 292 288 284 281
328 331 334 336 338 339 340 342 344 345 345 345 345 346 347 349 350 350 350 350 351 350 350 352 353 352 352 352 353 353 354 354 355 356 357 357 358 359 0 1 3 4 6 7 7 8 8 8 7 7 6 7 8 7 7 6 5 4 3 1 0 360 359 358 358 356 354 351 347 344 342 341 341 340 339 336 332 328 322 316 309 303 297 292 287 283
328 330 333 335 337 338 340 342 344 345 345 345 346 346 347 348 349 349 349 350 351 350 350 351 353 352 350 351 352 352 353 354 355 356 356 356 357 358 360 1 2 4 5 6 7 8 8 7 7 7 7 7 8 8 7 6 6 5 4 2 1 0 360 359 358 357 356 353 350 347 344 342 342 342 342 340 337 333 328 322 315 309 303 297 292 287
328 329 332 334 336 338 340 341 343 344 345 345 345 345 346 347 348 348 348 349 350 351 350 349 350 351 350 350 351 351 352 353 354 355 355 356 356 358 359 1 2 3 4 5 6 7 7 7 7 7 7 7 7 8 8 7 6 5 4 3 1 1 0 360 359 358 357 355 352 350 347 345 344 344 344 342 340 337 333 328 322 315 309 301 295 290
327 328 329 332 335 336 337 339 340 342 343 344 344 344 345 346 347 347 348 348 349 350 350 349 349 350 349 349 351 351 351 353 354 354 355 355 356 357 359 1 2 3 4 5 6 6 7 7 7 8 8 7 7 8 9 8 6 5 5 4 2 1 1 1 360 358 358 356 354 352 350 348 347 347 346 345 343 340 337 333 328 322 316 308 302 295
325 327 328 330 332 334 335 337 339 340 341 342 342 343 344 344 345 346 347 347 348 348 349 349 348 348 348 348 349 350 351 352 353 353 355 355 356 357 359 0 1 2 3 4 5 6 7 7 8 8 8 8 7 7 8 8 7 6 5 4 3 2 1 1 0 359 358 357 355 353 352 351 350 350 350 348 346 344 341 338 334 330 324 317 310 303
324 325 327 328 330 332 334 335 337 338 339 340 341 342 342 342 343 345 346 346 347 347 348 348 348 348 347 347 348 350 351 351 352 353 354 355 355 356 358 360 0 1 2 3 4 5 6 7 7 8 8 8 8 7 7 8 8 7 5 5 4 3 2 2 1 0 359 358 356 355 354 353 352 352 352 351 349 347 344 342 339 336 332 325 318 311
322 324 325 326 328 330 332 333 334 335 337 339 340 340 341 341 342 344 345 345 346 346 347 347 347 347 347 347 347 349 350 350 351 352 353 354 355 356 358 359 360 0 1 3 4 4 5 6 7 8 8 8 9 8 7 7 9 8 6 5 4 3 3 2 2 1 0 359 358 356 355 355 354 354 354 354 352 350 348 347 344 341 338 333 325 318
320 322 323 325 326 327 329 330 332 333 335 337 338 338 339 341 341 342 344 344 345 345 346 346 347 347 347 346 346 348 349 349 350 351 352 353 354 356 357 358 359 360 0 2 3 4 5 6 7 7 8 8 9 8 7 6 8 9 7 6 4 4 3 3 2 2 1 0 359 357 356 356 356 357 357 357 356 354 352 351 348 346 343 338 332 326
318 320 321 323 324 325 326 328 330 332 333 335 336 337 339 341 341 341 342 343 343 344 345 346 346 346 345 345 346 347 348 349 349 350 352 353 354 355 356 357 358 359 360 1 2 3 4 5 6 7 8 8 8 9 8 7 6 8 8 7 5 4 4 3 3 3 2 1 0 358 356 356 357 358 359 359 358 357 355 354 352 350 347 343 338 333
317 318 320 321 322 323 325 327 328 330 331 332 334 337 339 340 340 340 341 342 343 343 344 345 345 345 344 345 345 346 347 348 349 350 352 353 354 355 355 356 357 358 359 0 1 2 3 4 5 6 7 8 8 8 8 7 6 6 8 8 6 5 4 4 3 3 3 2 1 360 357 357 358 359 359 360 359 358 357 356 355 354 352 348 344 340
315 317 318 320 321 322 323 325 326 327 329 332 334 336 337 338 340 340 340 341 342 342 343 344 344 343 343 344 345 345 346 348 348 350 351 352 353 353 355 356 357 358 359 359 0 1 2 3 4 6 6 7 8 8 8 8 7 6 6 8 7 5 4 4 4 4 4 3 2 1 359 358 358 359 359 360 360 359 359 358 357 357 356 354 350 346
314 316 317 318 320 321 322 323 325 327 329 331 332 333 335 336 338 339 339 339 340 341 342 342 342 342 343 344 345 345 345 347 348 349 351 351 352 352 354 355 356 357 358 359 360 0 1 2 3 4 5 6 7 7 7 7 7 6 5 7 8 7 5 4 4 4 4 4 3 3 2 360 359 359 360 360 0 1 1 1 360 359 359 359 356 352
313 315 316 318 319 320 321 322 324 326 327 329 330 331 333 335 337 338 338 339 339 340 340 341 341 342 342 343 344 345 345 346 348 349 349 350 351 352 353 354 356 357 357 358 359 359 360 1 2 3 4 5 6 6 6 7 7 6 5 5 7 8 6 5 5 5 4 4 4 4 4 3 1 0 1 1 1 2 3 3 2 2 2 1 360 358
313 314 316 317 318 319 320 321 323 324 325 327 329 331 333 334 335 336 337 338 338 338 339 340 341 341 342 342 343 344 345 345 346 348 348 349 350 351 352 354 355 356 356 357 358 358 359 359 0 1 3 4 4 5 5 6 6 6 5 4 5 7 7 6 5 5 5 5 5 5 5 5 3 2 1 2 2 3 4 4 5 6 6 4 2 0
312 314 315 317 318 319 320 321 322 324 325 327 329 331 332 333 334 335 335 336 336 337 338 340 340 340 341 341 342 343 344 345 346 347 347 348 349 350 351 353 354 355 356 356 357 357 358 358 359 360 1 2 3 3 4 5 5 5 5 4 3 5 7 7 6 5 5 5 6 6 6 6 5 4 2 3 4 4 4 5 7 8 9 7 5 3
312 314 315 316 317 318 320 321 322 323 325 327 329 330 332 333 333 334 334 335 336 337 338 339 339 339 340 341 341 342 343 344 345 346 347 347 348 350 351 352 353 354 355 355 356 356 357 357 358 358 359 1 2 2 3 3 4 4 5 4 3 3 5 7 7 5 5 6 6 6 6 6 6 5 4 4 5 6 6 7 8 9 9 9 8 6
312 314 315 316 317 318 319 320 321 322 324 326 328 330 331 332 333 334 334 335 336 337 338 338 339 339 339 340 341 341 342 344 345 345 346 346 347 349 350 351 352 353 354 354 355 355 356 356 356 357 358 359 360 1 1 2 3 3 4 4 3 2 3 6 7 6 5 6 6 7 7 6 6 6 6 5 5 6 7 8 8 9 9 10 9 8
312 313 314 315 316 317 318 319 320 321 323 325 327 330 331 332 334 334 335 335 336 336 337 338 338 338 339 339 340 341 342 343 344 344 345 345 347 348 349 350 351 352 353 353 354 354 355 355 355 356 357 358 358 359 360 0 1 2 3 3 3 2 1 3 6 7 6 5 6 7 7 7 7 6 7 6 5 5 7 8 8 9 9 10 10 9
311 313 313 314 315 316 317 318 319 320 323 325 328 331 332 333 334 334 334 334 335 335 336 337 337 337 338 339 340 341 341 342 342 343 343 344 346 348 349 350 350 351 352 352 353 353 354 354 354 355 355 356 357 357 358 359 359 0 2 2 3 2 1 1 3 6 6 5 5 6 7 8 8 7 6 6 6 5 6 7 8 8 9 10 10 9
311 312 313 314 315 316 317 318 319 321 324 328 330 331 332 333 333 333 332 333 334 335 335 336 337 337 338 338 339 340 340 341 341 342 342 344 346 347 348 349 350 350 351 351 352 352 353 353 353 354 354 355 355 356 356 357 358 359 360 1 2 2 1 0 0 3 6 6 5 5 7 7 8 8 7 6 6 6 6 6 7 8 9 9 9 9
310 312 313 315 315 316 317 319 320 322 326 329 330 331 332 332 331 331 332 333 334 334 335 336 337 338 338 338 339 339 340 340 340 341 342 344 345 347 348 348 349 350 350 351 351 351 351 352 352 352 353 354 354 354 355 355 356 357 358 360 1 1 1 0 359 360 3 5 5 5 6 7 7 8 7 6 6 6 6 6 6 7 8 8 8 8
310 311 313 314 315 316 317 318 320 323 326 328 329 330 330 330 330 330 332 333 334 334 335 336 337 337 338 338 338 338 339 339 339 340 342 344 345 346 347 348 348 349 350 350 350 350 350 351 351 351 352 352 353 353 353 354 354 355 357 358 360 0 0 360 359 358 360 3 5 4 4 5 6 7 7 7 6 5 6 6 5 5 7 7 7 7
310 311 312 313 314 315 316 318 320 322 324 326 328 328 329 329 329 331 332 333 334 335 335 336 337 337 337 337 337 338 338 338 339 340 342 344 345 345 346 347 348 348 349 349 349 349 349 349 350 350 351 351 351 352 352 352 353 354 355 357 358 360 359 359 359 358 357 360 3 4 4 4 5 5 6 6 6 5 4 4 4 4 5 6 6 5
309 310 311 312 313 314 316 318 320 322 324 326 327 327 328 329 330 332 333 334 335 336 336 336 336 336 336 337 337 337 337 338 339 340 342 343 344 345 345 346 347 347 348 347 348 348 348 348 349 349 350 350 350 350 351 351 351 352 353 355 357 358 359 359 358 357 356 357 360 3 4 4 4 4 5 5 5 4 3 3 3 3 3 3 3 3
308 309 310 311 312 314 316 318 320 322 324 325 326 327 328 330 332 332 333 334 335 336 336 335 335 335 335 336 336 336 337 337 339 341 342 343 343 344 344 345 345 346 346 346 346 346 347 347 348 348 348 349 349 349 349 350 350 351 352 354 355 357 358 358 357 357 356 356 357 0 3 3 3 3 3 4 4 4 3 2 2 1 1 0 0 0
307 308 309 311 313 314 316 318 320 322 323 324 325 327 329 331 332 333 334 335 335 335 335 334 334 334 334 335 336 336 337 338 339 340 341 342 342 343 343 343 344 345 344 344 345 345 346 346 347 347 347 347 347 348 348 348 349 350 351 352 354 356 357 357 357 356 356 355 355 357 0 2 3 2 2 2 2 2 2 1 0 360 359 359 358 358
308 309 310 312 314 315 317 320 322 323 324 325 327 329 331 332 333 334 334 334 334 334 334 334 333 334 334 335 335 336 337 338 339 339 340 340 341 341 342 342 343 343 343 343 343 344 345 345 346 346 346 346 346 346 347 347 348 349 350 351 352 354 356 356 356 356 355 355 354 355 357 0 2 2 1 1 1 1 1 1 359 358 358 358 357 356
Height
10681 10678 10675 10671 10667 10664 10661 10658 10654 10649 10644 10639 10634 10630 10624 10616 10608 10603 10597 10589 10581 10573 10566 10561 10552 10542 10533 10524 10516 10509 10500 10490 10479 10468 10456 10443 10430 10417 10405 10391 10377 10362 10347 10334 10319 10304 10288 10273 10258 10245 10232 10221 10210 10202 10195 10189 10183 10176 10170 10165 10160 10155 10153 10150 10147 10144 10141 10138 10137 10137 10137 10137 10137 10138 10139 10139 10140 10141 10143 10145 10146 10147 10149 10151 10154 10157
10680 10676 10673 10669 10666 10663 10660 10655 10651 10646 10641 10636 10631 10626 10621 10615 10605 10597 10592 10586 10580 10573 10563 10556 10548 10537 10528 10522 10515 10506 10496 10486 10476 10463 10450 10437 10424 10411 10397 10381 10366 10352 10339 10326 10314 10299 10284 10269 10254 10241 10228 10215 10202 10189 10180 10175 10170 10165 10158 10153 10147 10142 10139 10137 10133 10130 10127 10124 10123 10123 10123 10122 10121 10121 10122 10123 10124 10126 10128 10130 10132 10134 10135 10137 10139 10142
10678 10674 10671 10668 10664 10661 10657 10653 10648 10643 10638 10633 10628 10621 10615 10611 10606 10597 10590 10583 10575 10567 10558 10551 10546 10538 10528 10521 10513 10502 10493 10483 10469 10455 10441 10430 10418 10403 10386 10371 10358 10344 10331 10316 10301 10285 10270 10255 10243 10231 10220 10208 10197 10184 10172 10163 10157 10152 10146 10140 10135 10130 10127 10123 10119 10116 10114 10111 10110 10110 10109 10107 10105 10105 10106 10107 10108 10109 10110 10113 10116 10118 10120 10122 10124 10127
10676 10673 10670 10666 10662 10658 10654 10649 10644 10640 10635 10629 10623 10617 10611 10607 10604 10598 10589 10581 10571 10563 10555 10547 10542 10538 10529 10518 10508 10498 10488 10475 10460 10449 10438 10425 10410 10393 10377 10363 10349 10335 10320 10303 10285 10267 10251 10238 10225 10215 10205 10196 10187 10177 10167 10156 10147 10140 10134 10128 10122 10118 10114 10110 10106 10103 10101 10098 10097 10096 10094 10091 10089 10089 10090 10091 10092 10092 10093 10096 10098 10101 10104 10106 10109 10111
10675 10672 10668 10664 10660 10656 10651 10646 10642 10636 10630 10623 10617 10613 10609 10603 10596 10592 10585 10578 10570 10561 10554 10544 10536 10531 10524 10514 10504 10493 10480 10468 10457 10447 10436 10420 10402 10385 10370 10354 10339 10324 10308 10291 10273 10254 10237 10223 10210 10199 10190 10181 10172 10164 10157 10148 10139 10131 10124 10117 10110 10106 10102 10098 10094 10091 10088 10086 10084 10081 10079 10077 10076 10075 10075 10075 10075 10076 10078 10081 10083 10085 10087 10090 10092 10095
10673 10670 10666 10663 10659 10654 10650 10645 10639 10632 10626 10621 10615 10610 10604 10598 10591 10586 10579 10572 10564 10557 10549 10541 10533 10526 10519 10508 10497 10486 10474 10466 10457 10444 10428 10410 10393 10378 10363 10347 10331 10315 10298 10280 10263 10246 10229 10214 10201 10190 10179 10169 10161 10152 10144 10136 10129 10122 10115 10109 10103 10096 10091 10087 10083 10078 10074 10073 10072 10068 10065 10064 10063 10061 10061 10060 10059 10060 10063 10065 10068 10070 10072 10074 10075 10077
10671 10668 10664 10661 10657 10652 10647 10642 10636 10630 10625 10620 10613 10606 10599 10594 10587 10580 10573 10566 10560 10553 10544 10538 10530 10521 10512 10502 10489 10480 10473 10464 10453 10437 10417 10400 10386 10372 10357 10340 10324 10306 10289 10272 10256 10241 10226 10211 10197 10185 10173 10162 10152 10143 10134 10126 10118 10112 10106 10100 10094 10089 10083 10077 10074 10068 10063 10061 10058 10055 10052 10050 10049 10048 10047 10046 10045 10047 10050 10052 10055 10057 10058 10059 10060 10061
10669 10666 10662 10658 10654 10649 10644 10639 10634 10629 10623 10617 10610 10604 10597 10589 10581 10574 10569 10563 10557 10551 10543 10536 10526 10512 10503 10498 10490 10480 10470 10458 10443 10426 10410 10395 10381 10366 10351 10335 10316 10298 10281 10265 10251 10237 10223 10209 10193 10179 10166 10155 10144 10135 10126 10118 10110 10102 10096 10090 10085 10080 10074 10069 10064 10059 10055 10051 10046 10042 10039 10037 10036 10035 10036 10035 10034 10036 10038 10040 10041 10041 10042 10043 10044 10045
10666 10663 10659 10655 10651 10646 10641 10637 10633 10627 10621 10615 10608 10601 10593 10585 10577 10571 10567 10562 10556 10548 10539 10529 10520 10509 10498 10490 10484 10474 10461 10445 10429 10416 10405 10392 10377 10361 10346 10329 10311 10294 10278 10263 10248 10233 10217 10202 10187 10173 10159 10146 10135 10125 10116 10107 10100 10093 10087 10081 10075 10069 10065 10060 10054 10050 10046 10042 10038 10032 10028 10025 10022 10021 10023 10023 10023 10023 10024 10024 10025 10024 10025 10028 10028 10029
10664 10660 10656 10652 10648 10644 10639 10635 10630 10625 10619 10613 10606 10600 10593 10585 10578 10570 10563 10558 10553 10544 10534 10523 10514 10507 10498 10484 10472 10460 10446 10432 10420 10408 10398 10386 10372 10357 10339 10323 10308 10293 10278 10263 10247 10230 10213 10196 10181 10168 10155 10143 10130 10119 10109 10099 10091 10085 10078 10072 10065 10059 10053 10049 10044 10040 10036 10033 10029 10024 10019 10015 10012 10009 10008 10008 10009 10009 10009 10010 10012 10012 10014 10016 10016 10017
10661 10657 10653 10649 10645 10641 10637 10632 10626 10621 10616 10611 10606 10601 10595 10587 10580 10571 10561 10554 10549 10541 10530 10520 10508 10497 10490 10479 10465 10451 10438 10428 10418 10407 10396 10383 10368 10352 10336 10321 10307 10291 10275 10259 10242 10226 10211 10196 10180 10165 10152 10140 10127 10116 10105 10095 10086 10078 10071 10065 10058 10051 10044 10038 10034 10030 10026 10022 10019 10015 10011 10007 10003 10000 9997 9996 9995 9996 9996 9998 10000 10002 10003 10004 10004 10005
10657 10653 10649 10646 10642 10638 10634 10629 10624 10619 10614 10609 10603 10597 10592 10585 10577 10570 10561 10550 10542 10534 10524 10514 10503 10491 10481 10472 10460 10449 10437 10427 10418 10407 10394 10380 10365 10350 10336 10320 10305 10289 10272 10255 10239 10224 10209 10195 10179 10164 10149 10136 10124 10112 10101 10090 10081 10072 10065 10058 10051 10044 10037 10031 10025 10021 10017 10013 10008 10005 10002 9999 9996 9992 9989 9986 9985 9984 9985 9987 9988 9989 9991 9993 9993 9994
10654 10650 10647 10643 10639 10635 10631 10627 10622 10617 10612 10606 10600 10594 10589 10583 10576 10569 10561 10547 10535 10528 10519 10509 10501 10492 10479 10468 10457 10446 10436 10426 10415 10402 10389 10377 10364 10348 10331 10313 10297 10283 10268 10253 10239 10224 10208 10192 10176 10161 10147 10134 10121 10109 10097 10085 10076 10067 10059 10052 10044 10038 10031 10024 10018 10013 10008 10004 10000 9997 9993 9990 9987 9984 9981 9979 9977 9975 9974 9974 9975 9976 9978 9980 9982 9984
10652 10649 10645 10641 10637 10633 10628 10624 10619 10614 10608 10601 10595 10589 10583 10577 10570 10563 10556 10545 10533 10523 10515 10506 10499 10491 10478 10465 10454 10443 10433 10422 10408 10397 10386 10374 10358 10340 10322 10307 10292 10278 10265 10253 10239 10223 10207 10191 10174 10159 10144 10131 10119 10107 10096 10084 10072 10063 10054 10047 10040 10033 10026 10020 10013 10007 10001 9997 9993 9989 9986 9982 9979 9976 9974 9971 9970 9968 9965 9964 9964 9964 9966 9968 9969 9972
10650 10646 10643 10639 10634 10629 10624 10620 10615 10610 10603 10596 10589 10581 10574 10568 10560 10551 10543 10536 10527 10519 10514 10505 10492 10481 10469 10457 10447 10438 10429 10418 10406 10395 10381 10364 10347 10333 10320 10307 10293 10279 10267 10253 10237 10221 10204 10189 10172 10156 10142 10128 10116 10105 10096 10085 10072 10061 10051 10042 10035 10028 10021 10015 10008 10002 9996 9991 9987 9983 9979 9976 9972 9969 9967 9964 9962 9960 9958 9956 9955 9954 9955 9956 9958 9961
10647 10643 10639 10635 10630 10625 10620 10615 10610 10605 10599 10592 10585 10576 10568 10561 10555 10547 10538 10531 10523 10513 10506 10497 10483 10471 10465 10457 10448 10438 10426 10414 10402 10387 10370 10354 10342 10331 10318 10305 10292 10279 10265 10250 10234 10218 10202 10186 10169 10153 10139 10127 10115 10103 10093 10083 10072 10061 10051 10041 10032 10024 10017 10010 10003 9997 9991 9986 9981 9977 9973 9969 9966 9963 9960 9958 9955 9953 9950 9949 9947 9946 9946 9946 9947 9950
10644 10640 10636 10631 10626 10621 10616 10610 10605 10599 10593 10586 10580 10573 10564 10555 10549 10545 10538 10529 10518 10506 10494 10489 10483 10474 10466 10458 10446 10432 10418 10405 10392 10377 10364 10353 10341 10329 10315 10302 10288 10273 10258 10244 10230 10215 10199 10182 10166 10151 10138 10125 10113 10101 10090 10080 10070 10059 10049 10040 10030 10021 10013 10006 10000 9993 9986 9981 9976 9972 9968 9964 9960 9957 9954 9951 9949 9947 9944 9942 9940 9939 9938 9938 9938 9940
10641 10637 10633 10627 10623 10618 10613 10607 10600 10594 10588 10581 10574 10568 10561 10552 10544 10537 10533 10526 10518 10509 10495 10484 10478 10470 10460 10450 10438 10424 10412 10400 10387 10376 10366 10355 10343 10330 10316 10300 10284 10269 10254 10240 10227 10213 10198 10181 10166 10151 10137 10123 10111 10099 10086 10075 10065 10056 10046 10037 10028 10019 10010 10002 9995 9989 9982 9976 9971 9967 9963 9959 9955 9951 9948 9945 9942 9941 9939 9936 9934 9933 9932 9932 9931 9931
10638 10634 10630 10625 10620 10615 10610 10605 10599 10592 10585 10577 10570 10562 10556 10549 10539 10528 10521 10517 10512 10506 10496 10482 10470 10461 10451 10440 10431 10423 10414 10402 10390 10379 10367 10354 10342 10329 10314 10298 10283 10268 10254 10241 10227 10213 10198 10182 10167 10152 10137 10122 10109 10096 10083 10071 10061 10052 10043 10034 10026 10018 10009 10000 9992 9986 9979 9973 9967 9962 9958 9954 9951 9947 9944 9940 9937 9935 9933 9931 9929 9927 9926 9925 9925 9924
10635 10630 10626 10621 10617 10611 10606 10601 10596 10590 10583 10577 10570 10562 10554 10545 10537 10525 10514 10507 10501 10495 10488 10479 10467 10455 10444 10434 10427 10420 10411 10402 10391 10378 10364 10351 10337 10322 10309 10296 10282 10268 10254 10241 10227 10211 10196 10182 10168 10152 10137 10123 10109 10095 10083 10071 10059 10049 10040 10031 10023 10015 10007 9999 9990 9983 9977 9971 9965 9959 9954 9949 9946 9943 9939 9936 9933 9930 9928 9926 9924 9922 9921 9920 9919 9919
10633 10628 10623 10618 10613 10608 10603 10596 10590 10583 10577 10572 10566 10559 10551 10542 10534 10525 10514 10503 10496 10488 10478 10471 10463 10453 10443 10434 10424 10414 10404 10394 10384 10371 10359 10346 10332 10317 10305 10293 10282 10269 10255 10240 10224 10209 10195 10183 10168 10153 10139 10125 10111 10097 10083 10071 10059 10047 10037 10028 10019 10011 10004 9996 9988 9981 9974 9968 9962 9956 9951 9946 9941 9938 9935 9932 9929 9926 9923 9921 9919 9917 9916 9915 9914 9914
10631 10626 10620 10615 10610 10605 10599 10592 10586 10580 10572 10566 10560 10553 10546 10537 10529 10521 10512 10500 10491 10484 10474 10464 10459 10454 10445 10434 10422 10409 10397 10385 10374 10365 10355 10342 10329 10317 10305 10293 10281 10268 10253 10237 10220 10206 10194 10182 10169 10155 10141 10127 10112 10098 10084 10071 10059 10047 10036 10026 10017 10008 10001 9993 9986 9979 9971 9965 9959 9954 9948 9943 9938 9934 9930 9927 9924 9922 9919 9916 9914 9912 9911 9910 9909 9909
10628 10624 10619 10613 10608 10602 10597 10590 10584 10579 10571 10563 10556 10549 10542 10534 10525 10516 10508 10498 10487 10480 10473 10461 10451 10445 10438 10428 10417 10405 10394 10384 10374 10364 10352 10338 10327 10317 10307 10296 10283 10268 10252 10235 10220 10208 10195 10181 10167 10155 10142 10127 10112 10097 10083 10070 10058 10046 10035 10025 10016 10007 9998 9990 9984 9977 9970 9962 9955 9950 9945 9941 9936 9931 9926 9923 9920 9917 9915 9912 9910 9908 9906 9905 9904 9904
10626 10622 10618 10613 10607 10601 10596 10590 10584 10577 10571 10564 10555 10548 10540 10532 10523 10513 10505 10497 10486 10477 10474 10466 10452 10441 10434 10425 10415 10405 10396 10387 10377 10365 10352 10340 10329 10319 10308 10296 10281 10266 10250 10236 10223 10210 10196 10181 10167 10154 10140 10125 10110 10096 10082 10069 10057 10045 10035 10024 10015 10006 9997 9988 9981 9974 9968 9961 9954 9947 9942 9938 9933 9928 9924 9919 9916 9913 9911 9908 9906 9904 9902 9901 9900 9899
10623 10619 10616 10611 10607 10601 10596 10590 10584 10576 10568 10561 10553 10545 10536 10528 10520 10512 10504 10497 10488 10476 10469 10465 10454 10439 10429 10423 10415 10407 10397 10387 10375 10362 10351 10342 10333 10322 10310 10295 10280 10265 10251 10237 10223 10208 10193 10179 10166 10152 10137 10123 10108 10093 10080 10068 10056 10045 10035 10025 10015 10006 9997 9988 9980 9973 9967 9960 9953 9946 9940 9935 9931 9926 9921 9917 9913 9909 9907 9904 9902 9900 9898 9897 9896 9895
10618 10614 10610 10606 10601 10595 10590 10583 10577 10570 10562 10555 10547 10539 10532 10524 10516 10509 10501 10494 10486 10474 10461 10456 10453 10443 10431 10422 10414 10405 10397 10388 10376 10364 10354 10345 10335 10322 10308 10293 10279 10264 10250 10236 10221 10206 10192 10179 10165 10151 10136 10121 10107 10093 10080 10068 10057 10046 10036 10025 10015 10006 9997 9988 9980 9972 9965 9959 9952 9945 9938 9933 9928 9924 9919 9915 9911 9907 9904 9901 9898 9896 9895 9893 9892 9891
10614 10608 10604 10600 10594 10588 10582 10576 10570 10564 10557 10549 10542 10535 10528 10521 10514 10506 10498 10489 10482 10474 10463 10452 10449 10444 10434 10424 10415 10406 10397 10387 10376 10366 10357 10346 10334 10320 10305 10291 10277 10263 10248 10235 10221 10209 10196 10183 10168 10153 10138 10122 10107 10093 10080 10068 10058 10047 10036 10026 10016 10005 9996 9988 9979 9970 9963 9957 9950 9944 9937 9931 9926 9921 9917 9913 9909 9905 9901 9898 9895 9893 9891 9889 9888 9887
10611 10606 10600 10596 10591 10585 10579 10573 10567 10561 10555 10547 10540 10532 10524 10518 10512 10504 10495 10486 10478 10473 10466 10453 10442 10437 10430 10422 10414 10406 10396 10385 10375 10366 10355 10342 10329 10316 10302 10289 10277 10264 10250 10238 10226 10214 10201 10187 10173 10158 10142 10126 10111 10097 10083 10070 10058 10048 10037 10026 10016 10006 9996 9987 9979 9970 9962 9955 9949 9943 9937 9930 9924 9919 9915 9911 9907 9903 9900 9896 9892 9890 9888 9886 9884 9883
10609 10604 10597 10591 10587 10582 10576 10571 10564 10557 10551 10545 10537 10530 10522 10515 10510 10503 10494 10486 10477 10469 10463 10455 10443 10434 10427 10419 10412 10403 10391 10380 10370 10360 10350 10338 10327 10315 10304 10291 10278 10265 10254 10243 10231 10218 10205 10190 10176 10161 10146 10130 10115 10101 10088 10075 10061 10049 10038 10027 10017 10007 9997 9988 9979 9970 9962 9955 9949 9942 9936 9930 9924 9919 9914 9909 9905 9902 9898 9894 9890 9887 9885 9883 9881 9880
10607 10602 10596 10589 10584 10579 10573 10567 10562 10555 10549 10543 10536 10528 10520 10513 10507 10502 10494 10486 10478 10468 10460 10454 10444 10433 10423 10414 10406 10397 10385 10374 10366 10357 10347 10337 10327 10317 10305 10292 10279 10269 10258 10247 10234 10220 10207 10193 10179 10164 10149 10134 10119 10104 10090 10078 10064 10051 10039 10029 10018 10007 9998 9988 9979 9970 9962 9955 9948 9942 9935 9929 9923 9918 9913 9909 9904 9900 9896 9892 9889 9885 9883 9880 9879 9877
10605 10600 10595 10589 10582 10577 10571 10565 10560 10554 10548 10541 10534 10527 10520 10511 10503 10498 10491 10483 10476 10467 10457 10450 10442 10433 10422 10410 10400 10392 10384 10374 10365 10356 10345 10336 10327 10316 10304 10292 10282 10272 10261 10248 10235 10222 10209 10195 10181 10167 10152 10138 10123 10108 10093 10080 10067 10054 10042 10030 10020 10009 9999 9989 9979 9971 9962 9955 9948 9941 9935 9929 9923 9917 9912 9908 9903 9899 9895 9891 9888 9884 9881 9879 9877 9875
10602 10598 10593 10587 10581 10576 10571 10565 10559 10553 10546 10539 10533 10526 10519 10509 10498 10492 10488 10480 10472 10466 10457 10448 10439 10430 10420 10410 10400 10392 10384 10375 10365 10356 10347 10337 10326 10314 10303 10294 10283 10272 10261 10249 10236 10223 10210 10196 10182 10168 10154 10140 10127 10112 10097 10083 10069 10057 10044 10032 10021 10011 10000 9990 9981 9972 9963 9955 9948 9941 9935 9928 9922 9917 9912 9907 9903 9899 9894 9891 9887 9884 9881 9877 9875 9873
10599 10595 10590 10585 10579 10573 10567 10562 10555 10549 10544 10538 10532 10525 10517 10508 10496 10488 10484 10477 10469 10461 10453 10444 10435 10426 10418 10411 10402 10392 10384 10374 10364 10356 10347 10336 10324 10313 10302 10292 10281 10269 10258 10245 10233 10221 10209 10195 10182 10168 10155 10142 10128 10114 10100 10085 10071 10059 10047 10035 10024 10013 10002 9992 9983 9973 9964 9956 9948 9941 9935 9928 9922 9917 9912 9907 9903 9898 9894 9890 9887 9883 9880 9877 9874 9872
10595 10591 10586 10582 10577 10571 10564 10558 10552 10546 10540 10535 10528 10521 10514 10507 10497 10485 10477 10471 10463 10454 10446 10439 10432 10424 10416 10408 10399 10390 10381 10373 10363 10353 10342 10330 10320 10311 10301 10289 10278 10267 10254 10242 10230 10218 10206 10194 10181 10168 10155 10142 10129 10116 10102 10088 10074 10061 10049 10038 10026 10015 10004 9994 9985 9975 9966 9957 9950 9942 9935 9929 9922 9917 9912 9907 9902 9898 9894 9890 9887 9883 9880 9877 9874 9871
10591 10587 10582 10578 10573 10568 10562 10556 10550 10544 10538 10531 10525 10518 10512 10507 10500 10488 10476 10469 10462 10453 10445 10437 10429 10422 10413 10405 10397 10387 10378 10371 10361 10349 10337 10327 10317 10309 10300 10289 10277 10265 10253 10241 10229 10217 10205 10193 10181 10168 10156 10143 10131 10118 10105 10092 10078 10064 10051 10040 10029 10017 10006 9996 9987 9977 9968 9959 9951 9944 9936 9930 9923 9917 9912 9907 9903 9898 9894 9890 9886 9883 9880 9876 9874 9871
10587 10583 10579 10574 10569 10565 10559 10553 10547 10540 10533 10527 10521 10516 10511 10505 10500 10491 10480 10470 10463 10454 10445 10436 10427 10419 10410 10402 10395 10385 10375 10368 10360 10348 10338 10329 10320 10309 10298 10287 10275 10263 10252 10240 10227 10215 10204 10192 10180 10168 10157 10144 10132 10120 10108 10096 10082 10068 10054 10043 10033 10021 10009 9999 9989 9979 9970 9962 9953 9945 9938 9931 9924 9918 9912 9907 9903 9898 9894 9890 9886 9883 9879 9876 9873 9871
10583 10578 10575 10570 10565 10561 10556 10550 10544 10538 10532 10526 10520 10514 10508 10501 10496 10490 10480 10470 10460 10451 10443 10435 10426 10416 10406 10397 10390 10382 10372 10362 10356 10348 10338 10329 10318 10307 10295 10283 10271 10260 10248 10236 10224 10213 10201 10190 10179 10167 10156 10145 10133 10122 10110 10098 10085 10072 10058 10045 10035 10024 10012 10001 9991 9982 9972 9964 9955 9947 9939 9932 9926 9919 9913 9908 9903 9899 9894 9890 9887 9883 9879 9876 9873 9871
10578 10573 10569 10565 10560 10555 10550 10545 10541 10537 10531 10524 10518 10511 10504 10498 10491 10485 10478 10470 10461 10452 10443 10434 10424 10414 10405 10396 10387 10379 10369 10357 10348 10341 10332 10322 10312 10300 10289 10278 10268 10257 10245 10234 10224 10212 10201 10189 10178 10167 10156 10145 10133 10122 10111 10100 10087 10075 10061 10048 10036 10026 10015 10004 9993 9984 9975 9966 9957 9949 9941 9934 9927 9921 9915 9909 9904 9899 9895 9891 9887 9883 9880 9877 9874 9871
10574 10568 10563 10559 10554 10548 10543 10537 10532 10529 10524 10518 10512 10506 10500 10493 10487 10482 10476 10469 10460 10451 10441 10431 10422 10412 10404 10395 10385 10377 10369 10359 10347 10337 10327 10317 10307 10297 10287 10276 10266 10256 10245 10234 10224 10213 10201 10189 10178 10167 10156 10145 10134 10123 10112 10101 10089 10077 10065 10051 10037 10027 10017 10007 9996 9986 9977 9968 9959 9951 9943 9936 9929 9922 9916 9911 9905 9900 9896 9892 9888 9884 9881 9878 9875 9872
10569 10564 10558 10554 10549 10543 10538 10533 10525 10520 10516 10511 10505 10500 10494 10488 10481 10475 10469 10463 10455 10446 10435 10426 10418 10409 10400 10392 10383 10374 10366 10358 10348 10337 10326 10316 10307 10297 10286 10276 10266 10256 10245 10235 10223 10212 10201 10189 10178 10167 10157 10145 10134 10123 10112 10101 10090 10079 10067 10054 10040 10028 10018 10009 9999 9988 9979 9970 9961 9953 9945 9937 9931 9925 9918 9912 9907 9902 9897 9893 9889 9885 9882 9879 9876 9873
10565 10560 10554 10549 10544 10538 10533 10529 10523 10515 10510 10505 10500 10495 10489 10484 10476 10468 10460 10452 10445 10438 10430 10421 10413 10405 10397 10389 10380 10371 10361 10353 10344 10335 10326 10316 10306 10296 10285 10275 10265 10254 10244 10234 10223 10212 10200 10189 10178 10167 10156 10145 10134 10123 10112 10101 10091 10080 10069 10056 10043 10030 10019 10010 10001 9991 9981 9972 9963 9955 9947 9940 9933 9926 9920 9914 9909 9904 9899 9894 9890 9887 9883 9880 9877 9874
10561 10557 10550 10544 10539 10534 10528 10524 10520 10514 10508 10502 10498 10492 10484 10477 10471 10463 10454 10446 10437 10430 10424 10416 10408 10400 10393 10385 10377 10368 10359 10350 10342 10333 10324 10315 10305 10295 10285 10274 10264 10253 10243 10232 10222 10211 10200 10189 10178 10167 10156 10145 10134 10123 10112 10101 10091 10081 10070 10058 10046 10033 10020 10010 10002 9993 9983 9974 9966 9957 9949 9942 9935 9928 9922 9916 9911 9905 9900 9896 9892 9888 9884 9881 9878 9875
10555 10552 10546 10539 10534 10529 10523 10517 10513 10510 10505 10498 10492 10487 10480 10471 10464 10457 10450 10442 10435 10426 10419 10412 10404 10396 10389 10381 10374 10365 10357 10349 10340 10331 10322 10313 10303 10293 10283 10273 10263 10252 10241 10231 10221 10210 10199 10189 10178 10168 10156 10145 10133 10122 10112 10101 10090 10080 10070 10059 10047 10035 10022 10011 10002 9994 9986 9976 9968 9960 9952 9944 9937 9930 9924 9918 9913 9907 9902 9897 9893 9889 9885 9882 9879 9876
10549 10545 10541 10534 10528 10522 10517 10511 10505 10500 10498 10493 10485 10478 10473 10466 10460 10454 10447 10440 10432 10424 10416 10409 10401 10393 10385 10377 10370 10363 10354 10346 10338 10328 10319 10310 10300 10291 10281 10271 10261 10251 10240 10230 10219 10209 10199 10188 10178 10168 10156 10145 10133 10122 10111 10101 10090 10080 10070 10060 10048 10036 10024 10012 10002 9994 9987 9979 9970 9961 9953 9946 9939 9933 9926 9920 9915 9909 9904 9899 9894 9890 9886 9883 9880 9877
10545 10540 10535 10529 10522 10515 10509 10504 10498 10492 10490 10488 10481 10474 10468 10461 10455 10449 10442 10435 10428 10420 10412 10405 10397 10390 10383 10375 10367 10360 10352 10344 10335 10326 10316 10307 10298 10288 10279 10270 10260 10250 10239 10228 10218 10208 10198 10187 10177 10167 10156 10145 10133 10121 10110 10100 10090 10080 10070 10060 10050 10038 10026 10014 10003 9994 9987 9980 9971 9962 9955 9948 9941 9935 9929 9923 9917 9911 9906 9901 9896 9892 9888 9884 9881 9878
10540 10536 10531 10525 10519 10512 10504 10498 10493 10487 10483 10481 10477 10470 10464 10457 10450 10444 10437 10430 10423 10415 10407 10400 10393 10386 10379 10372 10364 10357 10350 10342 10333 10324 10314 10305 10296 10286 10276 10267 10258 10248 10238 10227 10217 10207 10197 10187 10176 10165 10155 10144 10132 10121 10110 10100 10090 10080 10071 10061 10051 10040 10028 10017 10006 9995 9987 9980 9973 9964 9956 9949 9942 9936 9930 9924 9919 9913 9908 9903 9898 9894 9890 9886 9882 9879
10535 10531 10526 10520 10514 10509 10503 10497 10491 10485 10479 10476 10472 10466 10460 10453 10446 10440 10433 10426 10419 10412 10404 10396 10390 10382 10375 10368 10361 10354 10347 10339 10330 10322 10312 10302 10293 10284 10274 10265 10256 10246 10236 10227 10216 10206 10196 10186 10176 10165 10154 10144 10133 10122 10111 10100 10090 10081 10071 10062 10053 10042 10031 10020 10009 9998 9988 9981 9974 9966 9958 9950 9943 9937 9931 9925 9920 9915 9909 9905 9900 9896 9891 9887 9884 9881
10530 10526 10522 10517 10509 10503 10499 10495 10489 10482 10475 10470 10465 10460 10455 10449 10442 10435 10429 10422 10415 10409 10401 10393 10386 10379 10372 10366 10358 10351 10343 10336 10327 10318 10309 10300 10291 10281 10272 10262 10253 10244 10235 10225 10215 10205 10195 10185 10175 10165 10154 10144 10133 10122 10112 10101 10091 10081 10072 10063 10054 10044 10034 10023 10012 10002 9991 9982 9975 9968 9961 9953 9946 9939 9933 9927 9922 9917 9912 9907 9902 9897 9893 9889 9886 9883
10524 10520 10516 10512 10506 10499 10494 10491 10487 10481 10474 10467 10461 10456 10450 10445 10439 10432 10426 10419 10412 10405 10398 10390 10382 10375 10368 10362 10356 10348 10340 10332 10323 10315 10306 10297 10288 10278 10269 10260 10251 10242 10233 10224 10214 10204 10194 10185 10175 10165 10154 10143 10132 10123 10113 10102 10092 10082 10072 10063 10054 10045 10035 10025 10015 10005 9994 9985 9977 9970 9963 9956 9948 9941 9935 9930 9924 9919 9914 9910 9905 9900 9896 9892 9888 9884
10517 10513 10509 10506 10502 10495 10489 10485 10482 10478 10472 10465 10459 10454 10448 10442 10436 10429 10422 10415 10408 10401 10394 10387 10380 10372 10364 10357 10350 10344 10336 10327 10319 10310 10302 10293 10285 10276 10267 10257 10249 10240 10231 10221 10212 10203 10193 10184 10174 10164 10153 10142 10132 10122 10112 10102 10092 10082 10072 10063 10054 10045 10036 10027 10017 10007 9997 9987 9978 9971 9965 9958 9950 9943 9937 9931 9926 9921 9916 9911 9907 9902 9897 9893 9889 9885
10511 10507 10503 10500 10496 10489 10484 10479 10474 10470 10466 10460 10454 10449 10443 10437 10431 10425 10418 10411 10404 10397 10390 10383 10376 10370 10362 10354 10345 10338 10331 10322 10314 10305 10298 10290 10281 10273 10264 10255 10246 10238 10229 10220 10210 10201 10192 10182 10173 10163 10153 10142 10131 10121 10111 10102 10092 10082 10072 10063 10054 10045 10037 10028 10019 10009 9999 9989 9980 9972 9966 9959 9952 9945 9938 9932 9927 9921 9916 9912 9907 9903 9898 9894 9890 9886